This is the latest recevied weather packets stored in our database for station/object OE3TEC-15. If no packets are shown the sender has not sent any weather packets the latest 10 day(s).
| Time | Temp. | Humidity | Pressure | Rain* | Wind** | Luminosity | Snow |
|---|---|---|---|---|---|---|---|
| 1778034725 | 13.89° C | 77% | 1009 hPa | 0 mm | - | 0 W/m² | - |
| 1778034118 | 13.33° C | 77% | 1009 hPa | 0 mm | - | 0 W/m² | - |
| 1778033512 | 15° C | 72% | 1008.8 hPa | 0 mm | - | 0 W/m² | - |
| 1778032905 | 16.11° C | 69% | 1009.1 hPa | 0 mm | - | 0 W/m² | - |
| 1778032297 | 16.67° C | 67% | 1008.8 hPa | 0 mm | - | 0 W/m² | - |
| 1778031689 | 16.67° C | 67% | 1008.9 hPa | 0 mm | - | 0 W/m² | - |
| 1778031082 | 16.67° C | 66% | 1008.7 hPa | 0 mm | - | 0 W/m² | - |
| 1778030475 | 16.67° C | 64% | 1008.7 hPa | 0 mm | - | 0 W/m² | - |
| 1778029868 | 16.67° C | 64% | 1008.8 hPa | 0 mm | - | 0 W/m² | - |
| 1778029260 | 16.67° C | 64% | 1008.6 hPa | 0 mm | - | 0 W/m² | - |
| 1778028652 | 16.67° C | 64% | 1008.6 hPa | 0 mm | - | 0 W/m² | - |
| 1778028045 | 16.11° C | 65% | 1008.3 hPa | 0 mm | - | 0 W/m² | - |
| 1778027438 | 13.33° C | 75% | 1008.1 hPa | 0 mm | - | 0 W/m² | - |
| 1778026832 | 13.89° C | 73% | 1007.9 hPa | 0 mm | - | 0 W/m² | - |
| 1778026224 | 13.89° C | 73% | 1007.6 hPa | 0 mm | - | 0 W/m² | - |
| 1778025617 | 14.44° C | 70% | 1007.6 hPa | 0 mm | - | 0 W/m² | - |
| 1778025010 | 14.44° C | 72% | 1007.7 hPa | 0 mm | - | 0 W/m² | - |
| 1778024402 | 13.89° C | 73% | 1007.6 hPa | 0 mm | - | 0 W/m² | - |
| 1778023795 | 13.89° C | 71% | 1007.3 hPa | 0 mm | - | 0 W/m² | - |
| 1778023187 | 13.33° C | 73% | 1007.4 hPa | 0 mm | - | 0 W/m² | - |
| 1778022580 | 13.33° C | 73% | 1007.3 hPa | 0 mm | - | 0 W/m² | - |
| 1778021973 | 12.78° C | 75% | 1007.2 hPa | 0 mm | - | 0 W/m² | - |
| 1778021365 | 12.78° C | 74% | 1007.1 hPa | 0 mm | - | 0 W/m² | - |
| 1778020759 | 12.78° C | 74% | 1006.8 hPa | 0 mm | - | 0 W/m² | - |
| 1778020153 | 12.78° C | 73% | 1006.8 hPa | 0 mm | - | 0 W/m² | - |
* Rain latest hour (hover to see other rain measurements)
** Current wind speed in m/s (hover to see current wind gust speed)